Regional Weather Roundup
Issued by NWS Cleveland, OH

Home | Current Version | Previous Version | Text Only | Print | Product List | Glossary Off
Versions: 1 2 3 4 5 6 7 8 9 10 11 12 13 14 15 16 17 18 19 20 21 22 23 24 25 26 27 28 29 30 31 32 33 34 35 36 37 38 39 40 41 42 43 44 45 46 47 48 49 50

329
ASUS41 KCLE 191310
RWRCLE
OHIO REGIONAL WEATHER ROUNDUP
NATIONAL WEATHER SERVICE CLEVELAND, OH
900 AM EDT TUE SEP 19 2017

NOTE: "FAIR" INDICATES FEW OR NO CLOUDS BELOW 12,000 FEET WITH NO
SIGNIFICANT WEATHER AND/OR OBSTRUCTIONS TO VISIBILITY.

OHZ001>008-015>018-024>027-034-035-043-044-191400-
   NORTHWEST OHIO

CITY           SKY/WX    TMP DP  RH WIND       PRES   REMARKS
DEFIANCE       HVY RAIN  67  65  93 CALM      29.98S FOG
FINDLAY        LGT RAIN  70  65  84 SE7       29.96S
TOLEDO EXPRESS TSTM      66  32  28 E8        29.97F
TOLEDO EXEC    TSTM      69  67  93 NE7       29.99S VSB 3/4
LIMA           CLOUDY    69  66  90 W8        29.99R
$$

OHZ009>014-019>023-028>033-038-089-191400-
   NORTHEAST OHIO

CITY           SKY/WX    TMP DP  RH WIND       PRES   REMARKS
CLE-HOPKINS    CLOUDY    74  63  68 S5        30.01S
CLE-LAKEFRONT  CLOUDY    72  61  68 S12       29.99R
CUY CO. ARPT   PTSUNNY   70  64  83 SE9       30.01S
LORAIN-ELYRIA  CLOUDY    67  60  78 CALM      30.00S
ASHTABULA      CLOUDY    66  65  96 SE7       30.04S
AKRON-CANTON   MOSUNNY   70  62  76 SE7       30.02S
WOOSTER        CLOUDY    66  64  93 CALM      30.02S
MANSFIELD      CLOUDY    70  63  78 S8        30.01S
YOUNGSTOWN     CLOUDY    66  64  93 SE8       30.04S FOG
$$

OHZ042-051>053-060>062-070>072-077>081-191400-
  SOUTHWEST OHIO

CITY           SKY/WX    TMP DP  RH WIND       PRES   REMARKS
CINC-COVINGTON LGT RAIN  70  68  93 S6        29.99R
CINC-LUNKEN    CLOUDY    69  68  96 CALM      29.99R
HAMILTON       LGT RAIN  69  68  96 CALM      29.99R
DAYTON         CLOUDY    69  65  86 S6        30.00R
WRIGHT-PAT AFB CLOUDY    69  68  95 CALM      29.98S
DAYTON GENERAL LGT RAIN  69  64  84 S7        29.99R
WILMINGTON     MOSUNNY   71  64  78 S7        29.99S
$$

OHZ036-037-039>041-045>050-054>059-063>069-073>076-082>088-191400-
  CENTRAL AND SOUTHEAST OHIO

CITY           SKY/WX    TMP DP  RH WIND       PRES   REMARKS
COLUMBUS       CLOUDY    72  66  81 SE3       29.99S
OSU AIRPORT    CLOUDY    71  67  87 S5        30.00R
BOLTON FIELD   CLOUDY    68  66  94 CALM      30.01R
RICKENBACK AFB CLOUDY    67  66  94 CALM      30.00R
NEWARK         CLOUDY    69  65  86 CALM      30.00S
MARION         CLOUDY    70  63  78 S7        30.00S
LANCASTER      CLOUDY    69  66  90 SE6       30.01R
ZANESVILLE     CLOUDY    65  62  90 CALM      30.01F
NEW PHILLY     NOT AVBL
$$




USA.gov is the U.S. government's official web portal to all federal, state and local government web resources and services.